GW6369 Weather Reports


Display with metric or nautical units.
time (UTC)temp
F
wind
direction
speed
MPH
gust
MPH
rain 1hr
in
rain 24hr
in
rain mn
in
humidity
%
barometer
mb
20260506025443 58 220 6.0 10.0 0.00 0.00 0.00 82 1011.3
20260506024939 58 237 6.0 10.0 0.00 0.00 0.00 82 1011.1
20260506024436 58 180 6.0 11.0 0.00 0.00 0.00 82 1011.2
20260506023932 59 209 4.0 6.0 0.00 0.00 0.00 82 1011.2
20260506023429 58 245 2.0 2.0 0.00 0.00 0.00 82 1011.1
20260506022926 58 206 5.0 7.0 0.00 0.00 0.00 82 1011.3
20260506022424 58 220 3.0 6.0 0.00 0.00 0.00 82 1011.1
20260506021921 58 202 7.0 9.0 0.00 0.00 0.00 82 1011.1
20260506021418 58 237 6.0 8.0 0.00 0.00 0.00 82 1011.2
20260506020915 58 300 4.0 7.0 0.00 0.00 0.00 82 1011.2
20260506020413 58 76 6.0 8.0 0.00 0.00 0.00 81 1011.1
20260506015910 59 270 5.0 7.0 0.00 0.00 0.00 81 1011.1
20260506015408 59 288 8.0 11.0 0.00 0.00 0.00 80 1010.9
20260506014904 59 264 5.0 8.0 0.00 0.00 0.00 80 1011.0
20260506014401 59 256 7.0 9.0 0.00 0.00 0.00 80 1011.0
20260506013858 59 201 7.0 10.0 0.00 0.00 0.00 79 1010.9
20260506013356 59 173 7.0 13.0 0.00 0.00 0.00 79 1010.8
20260506012851 59 219 9.0 13.0 0.00 0.00 0.00 79 1010.9
20260506012348 59 198 7.0 10.0 0.00 0.00 0.00 79 1010.8
20260506011845 59 161 6.0 10.0 0.00 0.00 0.00 78 1010.8
20260506011342 59 231 9.0 13.0 0.00 0.00 0.00 78 1010.6
20260506010840 60 79 2.0 3.0 0.00 0.00 0.00 77 1010.8
20260506010338 60 216 8.0 13.0 0.00 0.00 0.00 77 1010.7
20260506005834 60 146 7.0 10.0 0.00 0.00 0.00 77 1010.6
20260506005331 59 246 6.0 8.0 0.00 0.00 0.00 77 1010.7
20260506004827 60 247 4.0 8.0 0.00 0.00 0.00 77 1010.4
20260506004325 60 200 5.0 6.0 0.00 0.00 0.00 76 1010.4
20260506003821 60 184 5.0 8.0 0.00 0.00 0.00 76 1010.4
20260506003317 60 188 4.0 8.0 0.00 0.00 0.00 75 1010.4
20260506002814 61 153 4.0 6.0 0.00 0.00 0.00 75 1010.3
20260506002310 60 201 4.0 6.0 0.00 0.00 0.00 75 1010.3
20260506001806 60 152 4.0 7.0 0.00 0.00 0.00 76 1010.2
20260506001303 60 127 5.0 9.0 0.00 0.00 0.00 76 1010.1
20260506000800 60 174 7.0 10.0 0.00 0.00 0.00 76 1010.0
20260506000258 60 276 4.0 6.0 0.00 0.00 0.00 76 1009.9
20260505235754 60 237 2.0 3.0 0.00 0.00 0.00 75 1009.8
20260505235252 60 193 4.0 6.0 0.00 0.00 0.00 75 1009.7
20260505234749 60 187 7.0 10.0 0.00 0.00 0.00 75 1009.5
20260505234246 60 178 4.0 7.0 0.00 0.00 0.00 75 1009.5
20260505233743 61 250 9.0 10.0 0.00 0.00 0.00 75 1009.4
20260505233241 60 191 9.0 11.0 0.00 0.00 0.00 75 1009.2
20260505232738 60 84 5.0 11.0 0.00 0.00 0.00 75 1009.3
20260505232235 60 209 5.0 11.0 0.00 0.00 0.00 75 1009.2
20260505231732 60 116 8.0 11.0 0.00 0.00 0.00 75 1009.1
20260505231231 60 225 8.0 13.0 0.00 0.00 0.00 75 1009.2
20260505230729 60 180 5.0 8.0 0.00 0.00 0.00 75 1009.1
20260505230225 60 105 6.0 9.0 0.00 0.00 0.00 75 1009.2
20260505225722 61 228 8.0 15.0 0.00 0.00 0.00 75 1009.1
20260505225219 61 176 5.0 7.0 0.00 0.00 0.00 74 1009.0
20260505224714 61 183 8.0 11.0 0.00 0.00 0.00 75 1009.2
20260505224212 61 182 9.0 17.0 0.00 0.00 0.00 75 1008.8
20260505223709 61 146 7.0 10.0 0.00 0.00 0.00 75 1009.0
20260505223205 61 168 7.0 9.0 0.00 0.00 0.00 75 1008.8
20260505222701 61 237 5.0 6.0 0.00 0.00 0.00 75 1009.0
20260505222157 61 174 8.0 14.0 0.00 0.00 0.00 74 1009.0
20260505221655 62 210 6.0 9.0 0.00 0.00 0.00 74 1008.9
20260505221151 61 195 7.0 11.0 0.00 0.00 0.00 73 1008.8
20260505220649 61 107 4.0 6.0 0.00 0.00 0.00 73 1008.9
20260505220146 62 167 8.0 14.0 0.00 0.00 0.00 72 1008.9
20260505215644 62 145 6.0 8.0 0.00 0.00 0.00 71 1008.8
20260505215142 62 197 6.0 10.0 0.00 0.00 0.00 72 1008.6
20260505214639 62 215 6.0 9.0 0.00 0.00 0.00 73 1008.8
20260505214136 62 202 11.0 16.0 0.00 0.00 0.00 72 1008.7
20260505213634 62 214 6.0 10.0 0.00 0.00 0.00 72 1008.6
20260505213130 62 186 4.0 6.0 0.00 0.00 0.00 72 1008.6
20260505212626 62 146 5.0 6.0 0.00 0.00 0.00 72 1008.5
20260505212124 63 152 11.0 18.0 0.00 0.00 0.00 71 1008.4
20260505211621 63 132 7.0 11.0 0.00 0.00 0.00 71 1008.4
20260505211118 62 232 3.0 6.0 0.00 0.00 0.00 72 1008.6
20260505210614 62 185 10.0 14.0 0.00 0.00 0.00 73 1008.5
20260505210111 62 185 7.0 10.0 0.00 0.00 0.00 74 1008.4
20260505205609 62 135 10.0 14.0 0.00 0.00 0.00 72 1008.3
20260505205107 62 233 7.0 9.0 0.00 0.00 0.00 73 1008.4
20260505204604 62 166 11.0 17.0 0.00 0.00 0.00 73 1008.4
20260505204101 62 133 7.0 13.0 0.00 0.00 0.00 74 1008.3
20260505203557 62 134 5.0 7.0 0.00 0.00 0.00 73 1008.4
20260505203055 62 215 8.0 11.0 0.00 0.00 0.00 73 1008.5
20260505202550 62 254 7.0 10.0 0.00 0.00 0.00 74 1008.3
20260505202047 62 177 9.0 11.0 0.00 0.00 0.00 74 1008.8
20260505201543 62 149 3.0 4.0 0.00 0.00 0.00 73 1008.5
20260505201041 62 171 6.0 11.0 0.00 0.00 0.00 73 1008.5
20260505200539 63 216 12.0 18.0 0.00 0.00 0.00 73 1008.6
20260505200036 63 263 5.0 7.0 0.00 0.00 0.00 73 1008.7
20260505195531 62 127 6.0 9.0 0.00 0.00 0.00 74 1008.7
20260505195029 62 229 8.0 14.0 0.00 0.00 0.00 73 1008.9
20260505194526 63 262 4.0 6.0 0.00 0.00 0.00 73 1009.0
20260505194021 63 252 5.0 10.0 0.00 0.00 0.00 72 1008.9
20260505193519 64 180 3.0 6.0 0.00 0.00 0.00 72 1009.0
20260505193016 64 210 6.0 9.0 0.00 0.00 0.00 72 1009.0
20260505192515 63 130 4.0 4.0 0.00 0.00 0.00 73 1009.3
20260505192012 63 52 3.0 4.0 0.00 0.00 0.00 74 1009.4
20260505191510 64 162 5.0 7.0 0.00 0.00 0.00 71 1009.4
20260505191008 64 131 7.0 9.0 0.00 0.00 0.00 72 1009.5
20260505190502 63 219 1.0 2.0 0.00 0.00 0.00 74 1009.6
20260505185958 63 239 7.0 9.0 0.00 0.00 0.00 73 1009.6
20260505185456 63 175 8.0 9.0 0.00 0.00 0.00 73 1009.9
20260505184951 63 167 5.0 7.0 0.00 0.00 0.00 74 1009.9
20260505184448 62 181 8.0 10.0 0.00 0.00 0.00 74 1010.0
20260505183945 62 188 6.0 8.0 0.00 0.00 0.00 74 1010.1
20260505183442 63 225 8.0 10.0 0.00 0.00 0.00 72 1010.2
20260505182938 63 226 1.0 3.0 0.00 0.00 0.00 74 1010.4
20260505182436 63 70 4.0 6.0 0.00 0.00 0.00 73 1010.4
20260505181932 63 271 4.0 8.0 0.00 0.00 0.00 73 1010.7
20260505181430 63 209 4.0 7.0 0.00 0.00 0.00 73 1010.7
20260505180926 64 201 5.0 7.0 0.00 0.00 0.00 73 1010.6
20260505180422 63 210 2.0 2.0 0.00 0.00 0.00 74 1010.7
20260505175919 64 190 4.0 4.0 0.00 0.00 0.00 72 1010.7
20260505175415 64 256 2.0 4.0 0.00 0.00 0.00 73 1010.8
20260505174912 63 215 2.0 3.0 0.00 0.00 0.00 74 1010.9
20260505174410 63 268 6.0 8.0 0.00 0.00 0.00 74 1011.1
20260505173906 63 231 4.0 6.0 0.00 0.00 0.00 74 1011.0
20260505173402 63 289 3.0 6.0 0.00 0.00 0.00 74 1010.9
20260505172859 63 245 6.0 8.0 0.00 0.00 0.00 73 1010.8
20260505172357 64 186 4.0 7.0 0.00 0.00 0.00 73 1010.9
20260505171856 62 177 5.0 6.0 0.00 0.00 0.00 76 1010.8
20260505171353 62 174 2.0 3.0 0.00 0.00 0.00 77 1011.0
20260505170850 62 180 4.0 6.0 0.00 0.00 0.00 77 1010.9
20260505170347 62 254 6.0 7.0 0.00 0.00 0.00 75 1011.0
20260505165842 63 134 4.0 6.0 0.00 0.00 0.00 73 1011.1
20260505165338 62 253 1.0 2.0 0.00 0.00 0.00 77 1011.2
20260505164834 62 96 0.0 1.0 0.00 0.00 0.00 77 1011.2
20260505164331 62 231 5.0 7.0 0.00 0.00 0.00 76 1011.4
20260505163829 63 192 7.0 9.0 0.00 0.00 0.00 74 1011.3
20260505163328 64 47 4.0 6.0 0.00 0.00 0.00 73 1011.1
20260505162826 63 151 1.0 2.0 0.00 0.00 0.00 75 1011.2
20260505162321 64 197 4.0 6.0 0.00 0.00 0.00 72 1011.2
20260505161819 65 113 3.0 6.0 0.00 0.00 0.00 71 1011.4
20260505161316 65 249 1.0 3.0 0.00 0.00 0.00 72 1011.3
20260505160813 65 232 2.0 3.0 0.00 0.00 0.00 73 1011.5
20260505160311 64 210 2.0 3.0 0.00 0.00 0.00 74 1011.3
20260505153250 64 213 2.0 3.0 0.00 0.00 0.00 73 1011.4
20260505152747 63 56 2.0 2.0 0.00 0.00 0.00 75 1011.5
20260505152243 62 229 4.0 6.0 0.00 0.00 0.00 76 1011.7
20260505151737 62 146 4.0 6.0 0.00 0.00 0.00 75 1011.7
20260505151235 62 146 2.0 4.0 0.00 0.00 0.00 76 1011.8
20260505150732 62 167 2.0 4.0 0.00 0.00 0.00 76 1012.1
20260505150230 62 267 6.0 8.0 0.00 0.00 0.00 75 1012.0
20260505140200 61 146 0.0 1.0 0.00 0.00 0.00 79 1011.6
20260505130123 59 179 4.0 7.0 0.00 0.00 0.00 84 1011.5
20260505124613 59 72 2.0 4.0 0.00 0.00 0.00 83 1011.3
20260505124109 59 143 0.0 1.0 0.00 0.00 0.00 85 1011.5
20260505123605 59 194 4.0 4.0 0.00 0.00 0.00 84 1011.4
20260505123102 58 152 1.0 1.0 0.00 0.00 0.00 85 1011.5
20260505122559 58 156 5.0 7.0 0.00 0.00 0.00 86 1011.2
20260505122056 58 138 2.0 3.0 0.00 0.00 0.00 84 1011.4
20260505121552 58 157 2.0 3.0 0.00 0.00 0.00 85 1011.5
20260505121049 57 189 1.0 2.0 0.00 0.00 0.00 85 1011.2
20260505120546 58 200 2.0 2.0 0.00 0.00 0.00 85 1011.7
20260505120041 58 193 4.0 4.0 0.00 0.00 0.00 85 1011.6
20260505115536 58 187 1.0 1.0 0.00 0.00 0.00 87 1011.7
20260505115034 57 205 0.0 2.0 0.00 0.00 0.00 89 1011.4
20260505114530 56 224 1.0 1.0 0.00 0.00 0.00 89 1011.4
20260505114027 56 74 0.0 1.0 0.00 0.00 0.00 89 1011.4
20260505113523 56 181 0.0 0.0 0.00 0.00 0.00 89 1011.4
20260505113020 56 189 1.0 1.0 0.00 0.00 0.00 89 1011.6
20260505112517 57 165 1.0 1.0 0.00 0.00 0.00 89 1011.4
20260505112015 57 145 0.0 1.0 0.00 0.00 0.00 89 1011.4
20260505111514 56 133 1.0 1.0 0.00 0.00 0.00 90 1011.4
20260505111010 56 186 1.0 1.0 0.00 0.00 0.00 91 1011.5
20260505110507 55 230 1.0 1.0 0.00 0.00 0.00 91 1011.8
20260505101939 53 178 2.0 3.0 0.00 0.00 0.00 94 1010.7
20260505101438 53 173 0.0 0.0 0.00 0.00 0.00 94 1010.7
20260505100934 53 161 2.0 2.0 0.00 0.00 0.00 94 1010.8
20260505100431 53 170 1.0 2.0 0.00 0.00 0.00 94 1010.4
20260505095926 52 179 1.0 1.0 0.00 0.00 0.00 94 1010.4
20260505095424 52 181 0.0 1.0 0.00 0.00 0.00 93 1010.5
20260505094920 52 162 0.0 0.0 0.00 0.00 0.00 93 1010.6
20260505094417 52 161 0.0 0.0 0.00 0.00 0.00 93 1010.4
20260505093913 52 185 0.0 0.0 0.00 0.00 0.00 93 1010.3
20260505093410 52 169 0.0 1.0 0.00 0.00 0.00 93 1010.5
20260505092907 52 170 0.0 0.0 0.00 0.00 0.00 93 1010.5
20260505092405 52 160 0.0 0.0 0.00 0.00 0.00 93 1010.6
20260505091902 52 140 0.0 0.0 0.00 0.00 0.00 93 1010.4
20260505091400 53 172 0.0 0.0 0.00 0.00 0.00 93 1010.3
20260505090858 53 203 2.0 2.0 0.00 0.00 0.00 92 1010.5
20260505090356 53 262 2.0 2.0 0.00 0.00 0.00 92 1010.4
20260505085853 53 224 1.0 1.0 0.00 0.00 0.00 92 1010.5
20260505085351 53 195 2.0 3.0 0.00 0.00 0.00 92 1010.3
20260505084848 53 286 0.0 0.0 0.00 0.00 0.00 92 1010.3
20260505084347 53 170 1.0 1.0 0.00 0.00 0.00 92 1010.4
20260505083844 53 163 1.0 1.0 0.00 0.00 0.00 92 1010.4
20260505083341 53 167 2.0 2.0 0.00 0.00 0.00 92 1010.6
20260505082837 53 238 2.0 2.0 0.00 0.00 0.00 92 1010.4
20260505082334 53 226 3.0 4.0 0.00 0.00 0.00 92 1010.6
20260505081830 53 203 2.0 3.0 0.00 0.00 0.00 91 1010.6
20260505081327 53 179 2.0 2.0 0.00 0.00 0.00 91 1010.6
20260505080824 53 239 1.0 2.0 0.00 0.00 0.00 91 1010.4
20260505080320 53 235 2.0 2.0 0.00 0.00 0.00 91 1010.6
20260505075815 53 234 0.0 1.0 0.00 0.00 0.00 91 1010.5
20260505075313 53 182 3.0 4.0 0.00 0.00 0.00 91 1010.6
20260505074810 53 166 0.0 0.0 0.00 0.00 0.00 91 1010.5
20260505074307 53 177 2.0 3.0 0.00 0.00 0.00 91 1010.5
20260505073804 53 207 2.0 3.0 0.00 0.00 0.00 91 1010.4
20260505073302 53 204 3.0 4.0 0.00 0.00 0.00 90 1010.6
20260505072759 53 213 1.0 1.0 0.00 0.00 0.00 90 1010.5
20260505072255 53 211 3.0 6.0 0.00 0.00 0.00 90 1010.6
20260505071751 53 170 2.0 4.0 0.00 0.00 0.00 90 1010.5
20260505071247 53 185 1.0 1.0 0.00 0.00 0.00 90 1010.6
20260505070745 53 217 2.0 2.0 0.00 0.00 0.00 90 1010.5
20260505070241 53 222 3.0 3.0 0.00 0.00 0.00 90 1010.6
20260505065737 53 240 2.0 4.0 0.00 0.00 0.00 90 1010.4
20260505065234 54 171 1.0 2.0 0.00 0.00 0.00 90 1010.4
20260505064731 54 255 3.0 3.0 0.00 0.00 0.00 90 1010.7
20260505064229 54 190 1.0 2.0 0.00 0.00 0.00 90 1010.5
20260505063726 54 211 1.0 1.0 0.00 0.00 0.00 90 1010.5
20260505063222 54 142 2.0 2.0 0.00 0.00 0.00 90 1010.5
20260505062718 53 195 4.0 6.0 0.00 0.00 0.00 90 1010.4
20260505062217 53 178 3.0 6.0 0.00 0.00 0.00 90 1010.8
20260505061713 54 225 2.0 3.0 0.00 0.00 0.00 90 1010.6
20260505061211 53 154 3.0 3.0 0.00 0.00 0.00 90 1010.6
20260505060708 54 180 0.0 1.0 0.00 0.00 0.00 89 1010.8
20260505060205 54 181 6.0 8.0 0.00 0.00 0.00 89 1010.8
20260505055700 54 134 2.0 3.0 0.00 0.00 0.00 89 1010.9
20260505055157 54 177 1.0 2.0 0.00 0.00 0.00 89 1010.8
20260505054654 54 187 2.0 3.0 0.00 0.00 0.00 89 1010.8
20260505054152 54 203 1.0 2.0 0.00 0.00 0.00 89 1011.0
20260505053650 54 152 2.0 2.0 0.00 0.00 0.00 89 1011.0
20260505053146 54 172 1.0 2.0 0.00 0.00 0.00 89 1011.1
20260505052643 54 204 3.0 3.0 0.00 0.00 0.00 89 1011.0
20260505052140 54 148 1.0 2.0 0.00 0.00 0.00 89 1011.1
20260505051637 54 206 2.0 3.0 0.00 0.00 0.00 89 1011.1
20260505051136 54 241 2.0 3.0 0.00 0.00 0.00 89 1011.1
20260505050633 54 155 0.0 0.0 0.00 0.00 0.00 89 1011.1
20260505050131 54 171 1.0 2.0 0.00 0.00 0.00 89 1010.9
20260505041601 54 194 2.0 2.0 0.00 0.00 0.00 87 1011.4
20260505041058 54 181 1.0 2.0 0.00 0.00 0.00 86 1011.5
20260505040555 54 172 2.0 3.0 0.00 0.00 0.00 86 1011.4
20260505040052 54 203 1.0 2.0 0.00 0.00 0.00 86 1011.3
20260505035548 54 242 2.0 3.0 0.00 0.00 0.00 86 1011.3
20260505035045 54 239 0.0 1.0 0.00 0.00 0.00 86 1011.5
20260505034541 54 197 1.0 1.0 0.00 0.00 0.00 85 1011.3
20260505034038 54 185 0.0 0.0 0.00 0.00 0.00 85 1011.3
20260505033535 55 224 1.0 1.0 0.00 0.00 0.00 85 1011.3
20260505033034 55 214 1.0 2.0 0.00 0.00 0.00 85 1011.4
20260505032531 55 182 2.0 3.0 0.00 0.00 0.00 85 1011.3
20260505032027 55 89 2.0 3.0 0.00 0.00 0.00 85 1011.5
20260505031525 55 189 2.0 2.0 0.00 0.00 0.00 85 1011.4
20260505031021 55 200 4.0 6.0 0.00 0.00 0.00 85 1011.3
20260505030518 55 194 2.0 2.0 0.00 0.00 0.00 85 1011.4
20260505030014 55 172 0.0 1.0 0.00 0.00 0.00 85 1011.4